Regional Weather Roundup
Issued by NWS Kansas City/Pleasant Hill, MO

Home | Current Version | Previous Version | Text Only | Print | Product List | Glossary On
Versions: 1 2 3 4 5 6 7 8 9 10 11 12 13 14 15 16 17 18 19 20 21 22 23 24 25 26 27 28 29 30 31 32 33 34 35 36 37 38 39 40 41 42 43 44 45 46 47 48 49 50
000
ASUS43 KEAX 031710
RWREAX

WEATHER ROUNDUP FOR EASTERN KANSAS AND NORTHWEST MISSOURI
NATIONAL WEATHER SERVICE KANSAS CITY/PLEASANT HILL MO
1200 PM CDT THU SEP 03 2015

KSZ040-057-103>105-MOZ028-029-037-043-031800-
...KANSAS CITY METROPOLITAN AREA...

CITY           SKY/WX    TMP DP  RH WIND       PRES   REMARKS
K.C. INTL      PTSUNNY   88  68  51 SW17      29.95F HX  91
K.C. DOWNTOWN  SUNNY     89  69  51 S12       29.94F HX  93
LEES SUMMIT    SUNNY     86  67  52 SW14      29.98F
OLATHE - IXD   SUNNY     85  70  60 S10       29.98F
OLATHE - OJC   SUNNY     83  70  64 S10       29.97F
LAWRENCE       SUNNY     89  69  51 S15       29.94F HX  93

$$

MOZ001>008-011>017-020>025-030>033-038>040-044>046-053-054-031800-
...NORTHERN AND CENTRAL MISSOURI...

CITY           SKY/WX    TMP DP  RH WIND       PRES   REMARKS
ST. JOSEPH     MOSUNNY   85  70  60 S14       29.93S
MOSBY          SUNNY     86  66  51 S12       29.96F
WARRENSBURG    SUNNY     86  64  48 S10       29.98F
WHITEMAN AFB   MOSUNNY   88  68  50 W10       29.98F HX  91
CLINTON        SUNNY     88  70  55 SW5       30.00F HX  92
SEDALIA        SUNNY     90  67  46 SW9       30.01F HX  93
WARSAW         NOT AVBL
CHILLICOTHE      N/A     89  70  53 S9        29.97S HX  94
KIRKSVILLE     MOSUNNY   88  67  49 SW12      29.98F HX  91

$$

MOZ041-047>049-056>058-063>065-088>090-097-031800-
...EASTERN AND SOUTHERN MISSOURI...

CITY           SKY/WX    TMP DP  RH WIND       PRES   REMARKS
ST. LOUIS INTL MOSUNNY   91  67  44 W8        30.01F HX  94
SPIRIT OF STL  MOSUNNY   87  71  58 S7        29.99F HX  93
COLUMBIA       SUNNY     85  72  65 S5        30.02S HX  91
JEFFERSON CITY MOSUNNY   85  69  58 VRB5      30.00F
ROLLA          MOSUNNY   90  67  46 SW9       30.02F HX  93
OSAGE BEACH    SUNNY     86  66  51 W6        30.03S
SPRINGFIELD    SUNNY     87  68  52 S9        30.03F HX  90
BRANSON        MOSUNNY   84  66  54 CALM      30.06F
JOPLIN         SUNNY     85  70  60 S9        30.02F
WEST PLAINS    SUNNY     85  66  53 S6        30.06F

$$

IAZ060-094-KSZ022-034>040-054-083-096-NEZ052-066-093-031800-
...KANSAS...SOUTHEAST NEBRASKA AND IOWA...

CITY           SKY/WX    TMP DP  RH WIND       PRES   REMARKS
TOPEKA         SUNNY     88  67  49 S10       29.92F HX  91
MANHATTAN      SUNNY     92  64  39 S17G24    29.89F HX  93
EMPORIA        SUNNY     88  65  46 S20G25    29.94F HX  90
CHANUTE        SUNNY     85  70  60 S14       29.99F
WICHITA        PTSUNNY   90  65  43 S21       29.93F HX  92
OMAHA          MOSUNNY   85  69  58 SE14      29.86F
LINCOLN        SUNNY     88  67  49 S14       29.86R HX  91
FALLS CITY     SUNNY     88  68  51 S14       29.89F HX  91
LAMONI         MOSUNNY   83  71  67 S13       29.95F
DES MOINES     MOSUNNY   84  70  62 S10       29.91F

$$




USA.gov is the U.S. government's official web portal to all federal, state and local government web resources and services.